Total_Precipitation_Accumulation
0.02 0.03 0.02 0.02 0.01 0.06 0.04 0.10 0.25 0.23 0.37 0.34 0.22 0.29 0.34 0.54 0.37 0.41 0.44 0.91 0.96 1.68 0.90 0.45 0.16 0.14 0.17 0.19 0.15 0.12 0.06 0.03 0.01 0.00 0.01 0.01 0.00 0.00 0.00 0.00 0.00 0.00 0.00
0.01 0.01 0.00 0.00 0.01 0.05 0.04 0.02 0.04 0.10 0.19 0.24 0.24 0.12 0.13 0.21 0.29 0.35 0.44 0.59 0.75 1.00 1.28 0.71 0.46 0.20 0.19 0.18 0.12 0.10 0.07 0.05 0.01 0.00 0.01 0.02 0.02 0.01 0.00 0.00 0.00 0.00 0.00
0.00 0.00 0.00 0.00 0.01 0.01 0.01 0.02 0.02 0.05 0.07 0.14 0.25 0.18 0.21 0.19 0.25 0.41 0.61 0.44 0.47 0.74 0.96 0.80 0.58 0.36 0.23 0.13 0.04 0.05 0.05 0.01 0.02 0.00 0.00 0.01 0.02 0.01 0.00 0.00 0.00 0.00 0.00
0.00 0.00 0.01 0.01 0.02 0.03 0.03 0.06 0.04 0.04 0.03 0.04 0.07 0.07 0.14 0.13 0.14 0.14 0.28 0.47 0.27 0.46 0.87 0.78 0.64 0.41 0.24 0.21 0.09 0.06 0.07 0.05 0.02 0.02 0.01 0.00 0.03 0.10 0.11 0.02 0.01 0.00 0.00
0.00 0.00 0.01 0.01 0.02 0.04 0.04 0.03 0.04 0.05 0.03 0.04 0.03 0.05 0.07 0.10 0.08 0.05 0.07 0.31 0.47 0.30 0.61 0.72 0.74 0.46 0.34 0.27 0.25 0.17 0.17 0.16 0.22 0.14 0.05 0.03 0.02 0.02 0.13 0.11 0.05 0.01 0.00
0.03 0.04 0.05 0.02 0.03 0.05 0.05 0.06 0.05 0.05 0.09 0.09 0.09 0.05 0.10 0.08 0.06 0.06 0.08 0.13 0.31 0.70 0.79 0.84 0.70 0.68 0.51 0.47 0.48 0.49 0.31 0.21 0.20 0.29 0.17 0.17 0.15 0.09 0.06 0.05 0.06 0.10 0.05
0.00 0.01 0.02 0.02 0.02 0.06 0.04 0.03 0.06 0.16 0.14 0.10 0.09 0.11 0.09 0.09 0.08 0.11 0.21 0.24 0.24 0.51 0.68 0.78 0.71 0.65 0.67 0.54 0.46 0.49 0.40 0.36 0.30 0.31 0.35 0.31 0.22 0.13 0.10 0.14 0.10 0.13 0.11
0.00 0.01 0.03 0.05 0.06 0.04 0.03 0.02 0.08 0.20 0.22 0.17 0.14 0.16 0.21 0.21 0.23 0.29 0.44 0.47 0.36 0.33 0.54 0.70 0.80 0.63 0.56 0.50 0.44 0.43 0.44 0.45 0.44 0.41 0.35 0.32 0.26 0.21 0.21 0.28 0.34 0.31 0.21
0.04 0.05 0.02 0.03 0.06 0.05 0.05 0.09 0.10 0.10 0.15 0.18 0.17 0.22 0.29 0.32 0.44 0.46 0.38 0.39 0.30 0.18 0.24 0.38 0.56 0.58 0.61 0.74 0.76 0.66 0.53 0.52 0.40 0.33 0.28 0.21 0.13 0.18 0.19 0.17 0.20 0.26 0.26
0.00 0.01 0.01 0.00 0.01 0.01 0.07 0.07 0.04 0.07 0.14 0.18 0.17 0.28 0.42 0.43 0.42 0.33 0.43 0.39 0.39 0.42 0.48 0.49 0.54 0.74 0.84 0.77 0.69 0.55 0.40 0.36 0.28 0.24 0.27 0.26 0.19 0.17 0.22 0.22 0.22 0.28 0.35
0.01 0.00 0.01 0.02 0.01 0.02 0.05 0.11 0.16 0.36 0.36 0.46 0.53 0.45 0.47 0.63 0.70 0.63 0.60 0.59 0.57 0.58 0.61 0.63 0.55 0.42 0.40 0.46 0.52 0.55 0.58 0.53 0.43 0.38 0.35 0.30 0.32 0.36 0.33 0.33 0.32 0.30 0.33
0.03 0.03 0.04 0.03 0.04 0.07 0.07 0.07 0.12 0.22 0.41 0.49 0.69 0.92 0.78 1.05 1.58 1.63 1.27 1.48 1.49 1.16 0.92 0.71 0.48 0.31 0.20 0.17 0.20 0.28 0.30 0.32 0.37 0.33 0.32 0.28 0.34 0.43 0.37 0.31 0.26 0.20 0.16
0.06 0.05 0.07 0.10 0.12 0.20 0.26 0.33 0.35 0.51 0.70 0.81 0.86 0.87 0.75 1.13 1.04 0.72 0.54 0.43 0.53 0.49 0.30 0.22 0.17 0.12 0.08 0.06 0.06 0.11 0.21 0.29 0.23 0.22 0.21 0.16 0.15 0.13 0.11 0.11 0.10 0.10 0.13
0.14 0.13 0.13 0.16 0.21 0.34 0.45 0.48 0.54 0.67 0.63 0.52 0.54 0.45 0.37 0.43 0.42 0.34 0.26 0.22 0.19 0.18 0.17 0.15 0.16 0.12 0.07 0.06 0.12 0.14 0.14 0.15 0.15 0.12 0.09 0.10 0.09 0.09 0.09 0.12 0.11 0.12 0.13
0.11 0.18 0.17 0.16 0.17 0.23 0.29 0.31 0.32 0.35 0.37 0.31 0.26 0.24 0.31 0.25 0.22 0.16 0.16 0.17 0.19 0.27 0.23 0.22 0.13 0.13 0.16 0.20 0.21 0.18 0.18 0.12 0.09 0.07 0.06 0.10 0.15 0.15 0.13 0.15 0.15 0.20 0.21
0.13 0.13 0.11 0.11 0.11 0.12 0.10 0.14 0.17 0.17 0.14 0.10 0.16 0.18 0.16 0.19 0.22 0.20 0.23 0.19 0.17 0.21 0.24 0.27 0.28 0.29 0.33 0.47 0.36 0.20 0.08 0.06 0.06 0.06 0.06 0.07 0.13 0.07 0.11 0.11 0.13 0.14 0.17
0.11 0.11 0.11 0.09 0.09 0.07 0.04 0.08 0.10 0.09 0.08 0.10 0.08 0.07 0.08 0.10 0.11 0.18 0.17 0.18 0.22 0.25 0.24 0.32 0.41 0.46 0.46 0.62 0.35 0.33 0.15 0.13 0.15 0.12 0.11 0.10 0.16 0.29 0.08 0.20 0.23 0.21 0.32
0.53 0.17 0.11 0.05 0.04 0.04 0.03 0.04 0.06 0.07 0.06 0.05 0.07 0.07 0.06 0.07 0.10 0.12 0.12 0.15 0.20 0.29 0.33 0.36 0.34 0.28 0.28 0.45 0.43 0.49 0.27 0.15 0.11 0.11 0.15 0.15 0.14 0.26 0.32 0.18 0.24 0.30 0.47
0.57 0.75 0.23 0.11 0.06 0.01 0.01 0.02 0.03 0.03 0.03 0.04 0.03 0.04 0.06 0.07 0.07 0.09 0.15 0.24 0.30 0.30 0.26 0.19 0.19 0.19 0.19 0.44 0.37 0.35 0.19 0.16 0.19 0.23 0.30 0.38 0.23 0.56 0.53 0.30 0.30 0.39 0.59
0.37 0.34 0.46 0.27 0.18 0.15 0.04 0.02 0.02 0.01 0.02 0.02 0.02 0.02 0.03 0.06 0.11 0.22 0.24 0.20 0.15 0.11 0.12 0.13 0.13 0.29 0.17 0.42 0.33 0.28 0.13 0.15 0.18 0.25 0.38 0.77 0.39 0.44 0.33 0.22 0.16 0.39 0.75
0.22 0.23 0.15 0.12 0.12 0.14 0.17 0.12 0.04 0.02 0.01 0.02 0.03 0.07 0.11 0.18 0.21 0.16 0.09 0.06 0.06 0.06 0.07 0.08 0.08 0.14 0.25 0.32 0.43 0.37 0.21 0.16 0.26 0.37 0.41 0.53 0.92 0.50 0.53 0.62 0.51 1.12 1.20
0.14 0.08 0.10 0.04 0.01 0.00 0.01 0.03 0.05 0.07 0.07 0.09 0.12 0.18 0.22 0.20 0.14 0.09 0.10 0.10 0.07 0.08 0.09 0.09 0.11 0.12 0.15 0.33 0.33 0.32 0.35 0.48 0.36 0.56 0.58 0.82 0.91 0.55 0.63 0.79 1.10 1.30 1.16
0.05 0.00 0.00 0.00 0.00 0.00 0.00 0.02 0.04 0.07 0.09 0.13 0.17 0.19 0.14 0.08 0.06 0.08 0.11 0.12 0.12 0.13 0.16 0.18 0.22 0.25 0.23 0.30 0.45 0.39 0.46 0.59 0.60 0.86 1.10 1.14 0.96 0.85 0.94 1.11 1.18 1.21 1.25
0.05 0.00 0.00 0.00 0.02 0.04 0.05 0.08 0.09 0.07 0.06 0.06 0.10 0.07 0.06 0.09 0.05 0.09 0.12 0.12 0.12 0.16 0.22 0.30 0.36 0.38 0.41 0.40 0.39 0.41 0.45 0.59 0.72 1.01 1.14 1.14 1.09 1.07 1.15 1.20 1.20 1.22 1.30
0.20 0.05 0.04 0.08 0.08 0.07 0.08 0.08 0.09 0.10 0.13 0.11 0.11 0.11 0.11 0.12 0.12 0.16 0.25 0.23 0.34 0.41 0.42 0.49 0.52 0.55 0.70 0.95 0.98 0.97 1.05 1.13 1.26 1.32 1.43 1.47 1.45 1.43 1.40 1.31 1.22 1.15 1.08
0.29 0.21 0.17 0.14 0.14 0.15 0.20 0.20 0.18 0.17 0.17 0.16 0.18 0.22 0.17 0.18 0.19 0.19 0.29 0.48 0.54 0.53 0.60 0.67 0.69 0.97 1.18 1.28 1.25 1.25 1.26 1.28 1.26 1.21 1.23 1.14 1.04 0.95 0.85 0.78 0.71 0.64 0.60